Location: Artesia
(33.8658°N, 118.0831°W)
Time: 20:05:27
(UTC+00:00)

Cosmos 1939 Rocket - Pass Details

Date: 13 June 2024
Orbit: 512 x 558 km, 97.4° (Epoch: 20 July)

Event Time Altitude Azimuth Distance (km) Brightness Sun altitude
Rises 12:02:13 0° 20° (NNE) 2,742 7.4 -7.7°
Reaches altitude 10° 12:04:28 10° 27° (NNE) 1,838 6.6 -7.3°
Maximum altitude 12:08:14 41° 99° (E) 807 4.2 -6.6°
Drops below altitude 10° 12:11:56 10° 170° (S) 1,802 5.2 -6.0°
Sets 12:14:06 0° 177° (S) 2,681 6.0 -5.6°
